SV1BYK-2 Athens GR current weather conditions

sailwx.info

Wind from 214 at 1 knots gusting 3

Air temperature 28.9° C
Dewpoint 16.4° C

Last reported at 2020-Aug-09 20:02 UTC.
Time now 2020-Aug-09 20:30 UTC

Location: N 38°01' E 023°42'.
View on Google Maps.

See reports from other nearby stations

  
Tides and Currents Weather Stations Pressure Air Temp Water Temp Dewpoint Dewpoint Depression Visibility Wind Speed Wind Dir Waves Ship Positions
date/time (UTC)wind fromknots sea level pressurealtimeterstation pressurevisibilityair tempwater tempwave heightnotes
2020-Aug-09 20:02 214 1 gusting 3 28.9
2020-Aug-09 19:53 192 1 gusting 5 28.9
2020-Aug-09 19:44 168 29.4
2020-Aug-09 19:35 266 1 gusting 6 29.4
2020-Aug-09 19:26 212 2 gusting 6 29.4
2020-Aug-09 19:17 177 3 gusting 6 29.4
2020-Aug-09 19:08 223 1 gusting 8 29.4
2020-Aug-09 18:59 193 2 gusting 8 29.4
2020-Aug-09 18:50 217 0 gusting 3 29.4
2020-Aug-09 18:41 162 1 gusting 6 29.4
2020-Aug-09 18:32 183 1 gusting 5 29.4
2020-Aug-09 18:23 169 1 gusting 5 29.4
2020-Aug-09 18:14 133 0 gusting 4 29.4
2020-Aug-09 18:05 192 0 gusting 6 29.4
2020-Aug-09 17:56 171 3 gusting 6 29.4
2020-Aug-09 17:47 066 1 gusting 9 30.0
2020-Aug-09 17:38 124 1 gusting 7 30.0
2020-Aug-09 17:29 222 1 gusting 9 30.0
2020-Aug-09 17:20 206 1 gusting 8 30.0
2020-Aug-09 17:11 128 4 gusting 14 30.0
2020-Aug-09 17:02 114 1 gusting 6 30.6
2020-Aug-09 16:53 323 2 gusting 13 31.1
2020-Aug-09 16:44 008 6 gusting 13 31.1
2020-Aug-09 16:35 254 3 gusting 5 30.6
2020-Aug-09 16:26 211 1 gusting 5 30.6
2020-Aug-09 16:17 139 2 gusting 5 30.6
2020-Aug-09 16:08 005 1 gusting 5 31.1
2020-Aug-09 15:59 270 3 gusting 8 31.1
2020-Aug-09 15:50 265 5 gusting 19 31.7
2020-Aug-09 15:41 226 9 gusting 19 31.7
2020-Aug-09 15:32 201 5 gusting 11 31.1
2020-Aug-09 15:23 211 1 gusting 6 31.1
2020-Aug-09 15:14 257 3 gusting 16 31.7
2020-Aug-09 15:05 225 4 gusting 13 32.2
2020-Aug-09 14:56 037 4 gusting 13 32.2
2020-Aug-09 14:47 288 5 gusting 13 32.2
2020-Aug-09 14:38 261 3 gusting 13 31.7
2020-Aug-09 14:29 274 5 gusting 14 31.1
2020-Aug-09 14:20 273 6 gusting 12 30.6
2020-Aug-09 14:11 233 4 gusting 16 31.1
2020-Aug-09 14:02 247 6 gusting 16 31.7
2020-Aug-09 13:53 225 9 gusting 15 32.2
2020-Aug-09 13:44 256 4 gusting 14 31.1
2020-Aug-09 13:35 242 5 gusting 11 31.7
2020-Aug-09 13:26 287 6 gusting 14 31.1
2020-Aug-09 13:17 304 3 gusting 16 30.6
2020-Aug-09 13:08 321 9 gusting 15 30.6
2020-Aug-09 12:59 357 1 gusting 13 31.1
2020-Aug-09 12:50 287 1 gusting 13 31.1
2020-Aug-09 12:41 283 6 gusting 13 30.6
2020-Aug-09 12:32 309 8 gusting 14 30.0
2020-Aug-09 12:23 264 6 gusting 12 30.0
2020-Aug-09 12:14 249 6 gusting 14 30.0
2020-Aug-09 12:05 282 3 gusting 13 29.4
2020-Aug-09 11:56 272 6 gusting 9 30.0
2020-Aug-09 11:47 203 3 gusting 14 29.4
2020-Aug-09 11:38 269 3 gusting 14 29.4
2020-Aug-09 11:29 294 2 gusting 18 29.4
2020-Aug-09 11:20 233 13 gusting 18 28.9
2020-Aug-09 11:11 232 7 gusting 18 28.3
2020-Aug-09 11:02 225 9 gusting 18 28.3
2020-Aug-09 10:53 268 11 gusting 18 28.3
2020-Aug-09 10:44 265 9 gusting 19 28.3
2020-Aug-09 10:35 282 9 gusting 22 28.3
2020-Aug-09 10:26 298 10 gusting 19 28.3
2020-Aug-09 10:17 273 6 gusting 19 28.3
2020-Aug-09 10:08 269 16 gusting 23 27.8
2020-Aug-09 09:59 270 6 gusting 20 27.8
2020-Aug-09 09:50 239 5 gusting 18 27.8
2020-Aug-09 09:41 273 9 gusting 17 27.8
2020-Aug-09 09:32 248 6 gusting 17 27.8
2020-Aug-09 09:23 272 6 gusting 19 27.2
2020-Aug-09 09:14 270 7 gusting 16 27.2
2020-Aug-09 09:05 241 6 gusting 14 26.7
2020-Aug-09 08:56 251 10 gusting 13 26.1
2020-Aug-09 08:47 257 7 gusting 16 26.1
2020-Aug-09 08:38 234 9 gusting 14 25.6
2020-Aug-09 08:29 227 6 gusting 13 25.6
2020-Aug-09 08:20 221 5 gusting 13 25.6
2020-Aug-09 08:11 229 3 gusting 14 25.0
2020-Aug-09 08:02 213 8 gusting 14 25.0
2020-Aug-09 07:53 225 1 gusting 10 25.0
2020-Aug-09 07:44 238 3 gusting 11 24.4
2020-Aug-09 07:35 224 6 gusting 13 23.9
2020-Aug-09 07:26 165 3 gusting 7 22.8
2020-Aug-09 07:17 193 3 gusting 11 22.2
2020-Aug-09 07:08 184 9 gusting 11 22.2
2020-Aug-09 06:59 190 3 gusting 10 22.2
2020-Aug-09 06:50 175 3 gusting 7 22.2
2020-Aug-09 06:41 178 4 gusting 9 22.2
2020-Aug-09 06:32 181 4 gusting 10 22.2
2020-Aug-09 06:23 240 5 gusting 20 22.2
2020-Aug-09 06:14 239 13 gusting 19 22.2
2020-Aug-09 06:05 229 3 gusting 6 21.7
2020-Aug-09 05:56 136 2 gusting 3 21.7
2020-Aug-09 05:47 118 1 gusting 2 21.7
2020-Aug-09 05:38 074 22.2
2020-Aug-09 05:29 107 22.2
2020-Aug-09 05:20 213 3 gusting 14 22.8
2020-Aug-09 05:11 228 6 gusting 14 22.8
2020-Aug-09 05:02 235 4 gusting 9 22.8
2020-Aug-09 04:53 202 4 gusting 13 22.2
2020-Aug-09 04:44 236 6 gusting 9 22.2
2020-Aug-09 04:35 261 3 gusting 15 22.2
2020-Aug-09 04:26 257 8 gusting 18 22.2
2020-Aug-09 04:17 257 8 gusting 21 22.2
2020-Aug-09 04:08 257 11 gusting 23 22.2
2020-Aug-09 03:59 234 10 gusting 18 22.8
2020-Aug-09 03:50 272 5 gusting 13 22.8
2020-Aug-09 03:41 274 7 gusting 19 22.8
2020-Aug-09 03:32 253 6 gusting 18 22.8
2020-Aug-09 03:23 251 9 gusting 19 22.8
2020-Aug-09 03:14 259 9 gusting 18 22.8
2020-Aug-09 03:05 236 10 gusting 18 22.8
2020-Aug-09 02:56 211 0 gusting 8 22.2
2020-Aug-09 02:47 227 3 gusting 9 22.2
2020-Aug-09 02:38 210 3 gusting 5 22.2
2020-Aug-09 02:29 210 22.2
2020-Aug-09 02:20 212 4 gusting 10 22.2
2020-Aug-09 02:11 212 1 gusting 3 23.3
2020-Aug-09 02:02 170 0 gusting 2 23.3
2020-Aug-09 01:53 145 0 gusting 6 23.3
2020-Aug-09 01:44 258 1 gusting 9 23.3
2020-Aug-09 01:35 254 5 gusting 12 23.3
2020-Aug-09 01:26 217 3 gusting 9 23.3
2020-Aug-09 01:17 212 5 gusting 9 23.3
2020-Aug-09 01:08 201 2 gusting 6 23.3
2020-Aug-09 00:59 187 2 gusting 6 23.3
2020-Aug-09 00:50 215 4 gusting 7 23.3
2020-Aug-09 00:41 228 2 gusting 6 23.3
2020-Aug-09 00:32 203 5 gusting 6 23.3
2020-Aug-09 00:23 212 1 gusting 7 23.3
2020-Aug-09 00:14 181 6 gusting 7 23.3
2020-Aug-09 00:05 191 5 gusting 8 23.9
2020-Aug-08 23:56 226 6 gusting 13 23.9
2020-Aug-08 23:47 229 4 gusting 17 23.9
2020-Aug-08 23:38 214 8 gusting 17 23.9
2020-Aug-08 23:29 196 5 gusting 6 24.4
2020-Aug-08 23:20 188 3 gusting 6 24.4
2020-Aug-08 23:11 192 3 gusting 9 24.4
2020-Aug-08 23:02 220 2 gusting 7 24.4
2020-Aug-08 22:53 243 3 gusting 6 24.4
2020-Aug-08 22:44 233 2 gusting 7 24.4
2020-Aug-08 22:35 226 5 gusting 6 24.4
2020-Aug-08 22:26 195 5 gusting 6 24.4
2020-Aug-08 22:17 189 1 gusting 6 24.4
2020-Aug-08 22:08 191 2 gusting 6 24.4
2020-Aug-08 21:59 188 24.4
2020-Aug-08 21:50 197 1 gusting 6 24.4
2020-Aug-08 21:41 217 24.4
2020-Aug-08 21:32 226 3 gusting 4 24.4
2020-Aug-08 21:23 229 3 gusting 6 24.4
2020-Aug-08 21:14 223 3 gusting 6 23.9
2020-Aug-08 21:05 217 1 gusting 1 23.9
2020-Aug-08 20:56 211 23.9
2020-Aug-08 20:47 197 1 gusting 3 23.9
2020-Aug-08 20:38 192 23.9
2020-Aug-08 20:29 204 1 gusting 3 23.9
2020-Aug-08 20:20 154 23.9
2020-Aug-08 20:11 090 23.9
2020-Aug-08 20:02 067 23.9
2020-Aug-08 19:53 070 23.9
2020-Aug-08 19:44 23.9
2020-Aug-08 19:35 23.9
2020-Aug-08 19:26 187 23.9
2020-Aug-08 19:17 225 1 gusting 1 23.9
2020-Aug-08 19:08 210 0 gusting 2 23.9
2020-Aug-08 18:59 241 1 gusting 2 23.9
2020-Aug-08 18:50 183 23.9
2020-Aug-08 18:41 187 1 gusting 3 23.3
2020-Aug-08 18:32 221 0 gusting 2 23.3
2020-Aug-08 18:23 229 1 gusting 2 23.3
2020-Aug-08 18:14 23.3
2020-Aug-08 18:05 23.3
2020-Aug-08 17:56 181 23.3
2020-Aug-08 17:47 212 23.3
2020-Aug-08 17:38 187 23.3
2020-Aug-08 17:29 215 23.3
2020-Aug-08 17:20 223 1 gusting 2 23.3
2020-Aug-08 17:11 208 0 gusting 2 23.3
2020-Aug-08 17:02 195 23.3
2020-Aug-08 16:53 218 23.3
2020-Aug-08 16:44 232 2 gusting 4 22.8
2020-Aug-08 16:35 142 22.8
2020-Aug-08 16:26 162 0 gusting 1 22.2
2020-Aug-08 16:17 239 22.2
2020-Aug-08 16:08 258 3 gusting 4 21.7
2020-Aug-08 15:59 198 3 gusting 3 21.7
2020-Aug-08 15:50 029 0 gusting 6 21.1
2020-Aug-08 15:41 040 4 gusting 6 21.7
2020-Aug-08 15:32 286 22.8
2020-Aug-08 15:23 243 12 gusting 16 23.9
2020-Aug-08 15:14 236 9 gusting 18 23.9
2020-Aug-08 15:05 226 11 gusting 19 23.9
2020-Aug-08 14:56 221 13 gusting 19 24.4
2020-Aug-08 14:47 225 9 gusting 18 25.6
2020-Aug-08 14:38 242 5 gusting 6 26.1
2020-Aug-08 14:29 247 1 gusting 6 26.1
2020-Aug-08 14:20 208 26.1
2020-Aug-08 14:11 220 26.1
2020-Aug-08 14:02 217 26.1
2020-Aug-08 13:53 245 1 gusting 6 25.6
2020-Aug-08 13:44 242 1 gusting 6 25.6
2020-Aug-08 13:35 249 4 gusting 6 25.0
2020-Aug-08 13:26 258 6 gusting 9 25.6
2020-Aug-08 13:17 264 3 gusting 7 26.1
2020-Aug-08 13:08 278 1 gusting 13 26.1
2020-Aug-08 12:59 202 1 gusting 4 26.7
2020-Aug-08 12:50 131 1 gusting 5 28.9
2020-Aug-08 12:41 105 0 gusting 6 30.0
2020-Aug-08 12:32 022 0 gusting 9 30.0
2020-Aug-08 12:23 004 5 gusting 9 30.0
2020-Aug-08 12:14 074 5 gusting 13 30.0
2020-Aug-08 12:05 027 5 gusting 10 30.0
2020-Aug-08 11:56 030 2 gusting 10 30.6
2020-Aug-08 11:47 019 4 gusting 14 30.0
2020-Aug-08 11:38 011 3 gusting 13 30.0
2020-Aug-08 11:29 033 5 gusting 13 30.6
2020-Aug-08 11:20 296 3 gusting 12 31.7
2020-Aug-08 11:11 220 3 gusting 12 31.7
2020-Aug-08 11:02 204 4 gusting 7 32.8
2020-Aug-08 10:53 198 1 gusting 9 31.7
2020-Aug-08 10:44 190 6 gusting 10 31.7
2020-Aug-08 10:35 196 6 gusting 12 31.7
2020-Aug-08 10:26 169 3 gusting 11 31.1
2020-Aug-08 10:17 173 4 gusting 10 31.1
2020-Aug-08 10:08 188 1 gusting 10 31.1
2020-Aug-08 09:59 213 7 gusting 11 30.6
2020-Aug-08 09:50 236 3 gusting 13 30.6
2020-Aug-08 09:41 186 3 gusting 9 32.2
2020-Aug-08 09:32 190 5 gusting 12 31.1
2020-Aug-08 09:23 173 3 gusting 13 31.7
2020-Aug-08 09:14 177 7 gusting 13 31.7
2020-Aug-08 09:05 215 31.1
2020-Aug-08 08:56 212 4 gusting 12 31.1
2020-Aug-08 08:47 236 6 gusting 9 31.7
2020-Aug-08 08:38 207 2 gusting 8 31.1
2020-Aug-08 08:29 230 4 gusting 10 31.1
2020-Aug-08 08:20 198 1 gusting 5 32.2
2020-Aug-08 08:11 214 2 gusting 4 32.2
2020-Aug-08 08:02 245 2 gusting 7 30.6
2020-Aug-08 07:53 210 0 gusting 6 30.6
2020-Aug-08 07:44 224 1 gusting 7 30.6
2020-Aug-08 07:35 206 30.0
2020-Aug-08 07:26 206 3 gusting 6 30.6
2020-Aug-08 07:17 181 0 gusting 3 32.2
2020-Aug-08 07:08 191 1 gusting 6 31.1
2020-Aug-08 06:59 217 2 gusting 6 29.4
2020-Aug-08 06:50 225 2 gusting 4 30.0
2020-Aug-08 06:41 194 1 gusting 2 30.6
2020-Aug-08 06:32 213 1 gusting 3 30.0
2020-Aug-08 06:23 023 30.6
2020-Aug-08 06:14 159 0 gusting 2 30.0
2020-Aug-08 06:05 172 30.0
2020-Aug-08 05:56 188 30.0
2020-Aug-08 05:47 184 29.4
2020-Aug-08 05:38 210 29.4
2020-Aug-08 05:29 124 0 gusting 1 28.9
2020-Aug-08 05:20 27.2
2020-Aug-08 05:11 128 26.1
2020-Aug-08 05:02 170 25.6
2020-Aug-08 04:53 108 25.6
2020-Aug-08 04:44 171 25.0
2020-Aug-08 04:35 181 1 gusting 1 24.4
2020-Aug-08 04:26 181 24.4
2020-Aug-08 04:17 185 24.4
2020-Aug-08 04:08 225 23.9
2020-Aug-08 03:59 225 0 gusting 1 23.9
2020-Aug-08 03:50 203 0 gusting 1 23.9
2020-Aug-08 03:41 181 23.9
2020-Aug-08 03:32 214 23.9
2020-Aug-08 03:23 204 0 gusting 1 23.9
2020-Aug-08 03:14 173 0 gusting 2 23.9
2020-Aug-08 03:05 102 23.9
2020-Aug-08 02:56 173 23.9
2020-Aug-08 02:47 181 23.9
2020-Aug-08 02:38 23.9
2020-Aug-08 02:29 23.9
2020-Aug-08 02:20 23.9
2020-Aug-08 02:11 23.9
2020-Aug-08 02:02 181 24.4
2020-Aug-08 01:53 179 24.4
2020-Aug-08 01:44 197 24.4
2020-Aug-08 01:35 196 1 gusting 3 24.4
2020-Aug-08 01:26 191 24.4
2020-Aug-08 01:17 104 24.4
2020-Aug-08 01:08 154 24.4
2020-Aug-08 00:59 194 24.4
2020-Aug-08 00:50 24.4
2020-Aug-08 00:41 24.4
2020-Aug-08 00:32 141 24.4
2020-Aug-08 00:23 24.4
2020-Aug-08 00:14 181 25.0
2020-Aug-08 00:05 168 25.0
2020-Aug-07 23:56 217 25.0
2020-Aug-07 23:47 248 1 gusting 6 25.6
2020-Aug-07 23:38 238 1 gusting 6 25.6
2020-Aug-07 23:29 208 3 gusting 6 25.0
2020-Aug-07 23:20 191 2 gusting 5 25.0
2020-Aug-07 23:11 215 2 gusting 3 25.0
2020-Aug-07 23:02 236 2 gusting 3 25.6
2020-Aug-07 22:53 234 3 gusting 6 25.6
2020-Aug-07 22:44 225 3 gusting 5 25.6
2020-Aug-07 22:35 226 1 gusting 6 25.6
2020-Aug-07 22:26 243 2 gusting 6 25.6
2020-Aug-07 22:17 240 5 gusting 6 25.6
2020-Aug-07 22:08 244 2 gusting 3 25.6
2020-Aug-07 21:59 213 2 gusting 4 25.6
2020-Aug-07 21:50 224 3 gusting 5 25.6
2020-Aug-07 21:41 223 1 gusting 3 25.6
2020-Aug-07 21:32 243 1 gusting 4 25.6
2020-Aug-07 21:23 211 1 gusting 4 25.6
2020-Aug-07 21:14 179 25.6
2020-Aug-07 21:05 199 0 gusting 2 25.6
2020-Aug-07 20:56 210 0 gusting 3 25.6
2020-Aug-07 20:47 200 1 gusting 3 25.6
2020-Aug-07 20:38 224 1 gusting 3 25.6
2020-Aug-07 20:29 211 1 gusting 3 25.6
2020-Aug-07 20:20 213 2 gusting 3 25.6
2020-Aug-07 20:11 221 2 gusting 4 25.6
2020-Aug-07 20:02 223 3 gusting 5 25.6